Vorticity
1 3 3 3 2 3 3 5 6 4 3 4 8 2 23 8 -1 0 11 11 5 9 18 12 13 14 12 4 3 10 4 4 5 5 6 11 12 12 13 11 8 7 6
3 2 4 3 3 3 3 3 4 5 6 5 3 4 4 4 3 -0 5 8 9 4 0 1 -3 3 8 17 12 9 3 13 12 35 8 5 8 7 8 10 11 11 10
6 4 3 4 2 3 3 3 3 3 4 5 6 5 3 5 13 13 1 7 -0 13 9 -0 1 17 56 15 5 15 19 35 2 3 26 49 35 23 -18 -3 -5 3 6
17 9 7 3 3 2 2 2 3 3 4 4 5 5 4 5 5 4 6 2 -5 17 1 5 5 -9 -5 -10 -2 -18 -16 5 18 10 9 2 -6 -1 18 23 22 -10 -4
9 -2 10 16 8 5 4 4 1 2 3 3 4 4 4 5 4 5 6 8 9 6 13 8 8 9 4 4 -2 12 -1 36 -14 4 -6 -5 -2 -3 -1 3 0 3 5
6 10 6 14 15 6 14 5 2 5 7 3 4 2 2 3 2 3 4 5 5 7 5 4 -4 -1 3 8 8 8 -16 -12 -9 -6 7 2 2 -1 0 7 4 5 6
-5 -8 2 3 16 6 7 12 14 7 4 2 1 3 7 4 6 1 4 6 6 5 5 7 8 8 7 8 6 2 -5 6 -1 -1 5 11 8 7 9 8 6 6 8
-2 15 -2 6 -5 12 -1 7 9 16 7 -1 17 9 7 0 1 8 6 11 8 3 5 6 7 6 7 7 6 8 8 10 6 8 7 7 7 7 6 8 8 6 6
-8 6 8 3 -3 12 13 11 13 11 7 11 3 2 -0 5 6 4 3 6 5 5 8 5 4 7 7 7 7 6 5 6 7 7 7 7 7 5 6 6 6 7 7
-1 3 13 6 5 8 2 7 15 15 14 10 12 5 11 7 0 11 4 3 6 7 3 9 11 5 5 5 6 7 7 6 6 7 6 7 8 7 7 7 5 5 7
9 8 6 -2 9 7 -14 14 -2 7 11 13 19 -1 6 1 16 3 5 6 2 8 9 -4 12 10 11 8 5 5 5 6 5 6 7 5 5 6 6 6 6 7 6
16 -11 15 -5 8 -6 25 10 -1 11 9 11 17 15 5 -2 6 4 13 -2 7 7 15 14 10 12 8 5 8 8 7 7 8 7 8 9 8 6 6 7 8 7 8
-15 -1 12 16 2 10 3 -2 8 5 4 10 13 15 9 9 12 7 10 21 -0 -4 -6 -1 5 7 5 9 11 6 3 5 5 6 7 7 8 7 6 6 7 7 8
16 19 -14 7 20 6 17 -2 6 8 9 8 7 15 17 12 7 10 -2 -12 -1 8 10 -1 10 4 6 10 8 9 11 12 9 8 8 8 8 9 9 8 8 8 8
9 27 20 19 -15 2 21 8 6 6 6 7 10 12 18 17 3 14 12 8 13 24 10 18 12 14 12 11 12 12 12 11 10 10 9 8 8 9 9 10 10 10 10
11 -2 9 12 7 1 -3 16 8 4 1 9 10 12 11 20 12 14 16 16 12 15 11 -1 18 11 10 9 8 8 8 9 9 9 10 10 10 10 10 10 10 10 10
-4 -19 34 -10 -8 13 23 4 0 5 8 15 10 9 12 10 14 17 16 15 18 13 17 16 9 8 8 8 9 9 9 9 10 11 11 11 11 11 11 11 11 10 10
11 31 -2 -23 23 6 -3 2 4 1 8 8 8 10 11 11 10 12 11 10 10 10 11 10 9 7 7 10 10 10 9 8 6 6 6 6 6 6 7 7 7 8 8
12 23 26 15 8 8 6 2 9 14 12 12 13 13 12 11 10 12 13 11 11 11 11 11 8 6 6 7 8 9 10 10 11 12 12 13 13 13 12 12 12 13 13
8 26 -3 10 3 0 9 13 12 14 14 14 12 11 10 10 10 10 10 9 9 10 11 11 11 12 12 12 11 11 12 11 11 11 11 11 12 12 13 12 11 12 12
6 3 6 1 7 13 16 18 18 16 15 13 12 13 13 13 13 12 12 12 12 13 13 14 14 13 13 12 11 11 11 11 11 11 11 10 10 10 10 10 10 10 11
2 7 18 22 21 19 14 12 10 10 10 9 10 10 10 11 11 12 12 12 12 12 12 11 11 11 11 11 11 10 9 9 9 9 8 8 9 9 8 8 8 9 9
28 24 16 10 8 7 7 8 8 8 8 8 8 8 8 8 9 9 9 9 9 9 9 8 8 8 8 8 7 8 8 7 8 8 6 7 7 7 7 8 7 7 8
6 5 6 8 9 8 6 6 5 5 6 7 7 8 9 9 9 9 9 8 8 8 8 8 8 8 8 7 7 6 6 6 7 8 8 7 8 8 8 9 9 10 9
10 10 8 5 4 4 5 5 6 8 9 9 10 10 10 9 10 9 8 9 8 8 8 8 7 8 8 8 8 8 9 10 11 12 15 13 14 15 15 16 15 15 15
4 5 5 5 6 6 7 8 10 10 10 10 10 9 9 9 9 9 9 9 9 9 9 9 10 9 9 10 12 14 15 15 13 12 12 10 9 9 8 8 8 8 9
Height
3180 3183 3187 3189 3191 3194 3196 3198 3200 3202 3205 3206 3207 3209 3210 3212 3214 3215 3216 3218 3219 3220 3222 3224 3224 3223 3222 3223 3224 3224 3224 3224 3225 3225 3225 3226 3227 3228 3229 3229 3229 3229 3230
3178 3181 3186 3188 3190 3193 3195 3197 3199 3201 3203 3205 3207 3208 3210 3212 3213 3215 3216 3217 3218 3221 3222 3223 3223 3223 3222 3221 3221 3222 3222 3223 3223 3224 3225 3226 3227 3228 3229 3229 3229 3229 3229
3175 3177 3182 3186 3188 3191 3193 3195 3197 3199 3201 3203 3205 3206 3208 3210 3211 3213 3215 3216 3218 3219 3220 3221 3222 3224 3219 3217 3217 3218 3219 3222 3223 3222 3223 3226 3228 3229 3229 3229 3229 3229 3229
3172 3176 3181 3183 3185 3188 3191 3193 3195 3198 3200 3202 3204 3205 3207 3208 3211 3212 3214 3216 3217 3217 3218 3220 3222 3222 3224 3223 3219 3221 3220 3222 3221 3221 3224 3226 3227 3227 3228 3228 3227 3229 3229
3169 3172 3175 3179 3182 3184 3187 3189 3191 3194 3196 3199 3201 3203 3205 3207 3208 3210 3211 3213 3214 3215 3216 3218 3220 3221 3221 3222 3222 3221 3222 3222 3222 3224 3224 3224 3225 3226 3226 3226 3227 3226 3227
3165 3168 3170 3174 3177 3180 3182 3185 3188 3190 3193 3195 3198 3201 3202 3204 3205 3207 3207 3209 3211 3212 3214 3215 3217 3218 3219 3219 3219 3220 3221 3220 3221 3221 3222 3223 3223 3222 3223 3223 3224 3224 3223
3162 3164 3167 3169 3174 3176 3178 3181 3183 3185 3189 3191 3195 3197 3199 3200 3200 3203 3204 3205 3206 3208 3209 3210 3212 3212 3214 3215 3216 3216 3215 3216 3218 3219 3219 3218 3218 3218 3218 3219 3219 3219 3219
3157 3160 3163 3166 3169 3173 3175 3177 3179 3182 3184 3186 3189 3191 3194 3196 3196 3197 3200 3202 3203 3204 3205 3206 3207 3207 3208 3209 3210 3210 3209 3208 3211 3215 3216 3215 3214 3214 3214 3214 3214 3214 3214
3154 3156 3160 3163 3165 3169 3171 3172 3174 3176 3178 3180 3183 3186 3188 3189 3191 3193 3194 3195 3197 3198 3200 3202 3203 3204 3203 3203 3203 3203 3203 3202 3202 3208 3210 3210 3209 3208 3208 3209 3208 3209 3209
3149 3152 3156 3158 3161 3164 3167 3169 3170 3171 3173 3174 3177 3179 3182 3185 3186 3189 3190 3191 3191 3191 3193 3195 3197 3198 3198 3198 3198 3198 3197 3196 3196 3200 3203 3203 3203 3201 3201 3201 3202 3202 3202
3144 3146 3151 3153 3155 3158 3162 3164 3166 3167 3168 3170 3172 3174 3176 3178 3180 3182 3184 3186 3186 3185 3185 3187 3190 3191 3191 3191 3192 3192 3191 3190 3190 3191 3194 3196 3194 3193 3193 3193 3194 3194 3195
3138 3142 3146 3147 3150 3152 3156 3159 3161 3162 3163 3164 3165 3167 3169 3172 3174 3175 3177 3178 3179 3180 3179 3180 3183 3184 3184 3184 3184 3184 3184 3183 3183 3183 3186 3188 3187 3186 3185 3185 3186 3186 3187
3132 3135 3139 3142 3145 3147 3149 3152 3155 3157 3158 3159 3159 3160 3161 3163 3166 3168 3170 3172 3172 3173 3173 3172 3175 3175 3175 3177 3177 3177 3176 3176 3176 3176 3178 3179 3179 3178 3177 3177 3177 3177 3177
3124 3128 3133 3136 3139 3141 3143 3145 3147 3149 3151 3153 3153 3153 3154 3156 3158 3161 3163 3163 3164 3165 3165 3166 3167 3166 3167 3168 3168 3168 3168 3168 3168 3168 3168 3170 3170 3170 3170 3169 3168 3168 3168
3117 3122 3125 3130 3133 3135 3136 3139 3141 3142 3143 3145 3146 3147 3147 3148 3150 3151 3153 3155 3156 3156 3157 3158 3158 3158 3158 3159 3160 3160 3160 3161 3161 3161 3161 3161 3160 3161 3161 3160 3160 3159 3159
3110 3114 3118 3122 3125 3128 3130 3132 3133 3135 3137 3138 3138 3140 3140 3141 3142 3143 3144 3146 3147 3149 3149 3150 3150 3151 3151 3152 3152 3152 3153 3153 3153 3153 3153 3153 3153 3152 3152 3151 3151 3150 3150
3103 3107 3110 3114 3117 3120 3124 3126 3127 3129 3129 3130 3131 3132 3133 3134 3135 3136 3137 3138 3139 3140 3141 3142 3143 3144 3145 3144 3145 3145 3145 3145 3144 3144 3144 3144 3144 3143 3143 3143 3142 3141 3141
3095 3097 3102 3106 3110 3113 3116 3120 3121 3122 3122 3123 3124 3125 3126 3127 3128 3128 3129 3130 3131 3133 3134 3135 3136 3136 3136 3137 3137 3137 3137 3137 3137 3136 3136 3135 3135 3135 3134 3134 3133 3133 3132
3087 3091 3095 3098 3103 3107 3109 3112 3113 3114 3115 3116 3116 3117 3118 3119 3121 3121 3123 3124 3124 3126 3127 3128 3128 3129 3129 3129 3129 3129 3128 3128 3128 3128 3127 3127 3127 3126 3124 3123 3123 3122 3121
3079 3084 3089 3092 3096 3099 3101 3103 3105 3106 3107 3108 3110 3111 3112 3113 3114 3115 3116 3117 3117 3119 3120 3120 3121 3121 3121 3121 3121 3120 3120 3120 3120 3120 3118 3118 3117 3116 3115 3115 3114 3113 3112
3074 3079 3082 3086 3089 3091 3094 3096 3098 3100 3101 3102 3104 3105 3106 3107 3108 3108 3109 3110 3110 3111 3112 3113 3113 3113 3114 3114 3113 3113 3113 3113 3112 3112 3111 3109 3109 3108 3106 3106 3105 3104 3103
3070 3074 3077 3079 3082 3086 3088 3091 3093 3095 3096 3098 3100 3101 3101 3102 3103 3103 3104 3104 3105 3105 3105 3105 3106 3106 3107 3107 3107 3106 3106 3105 3105 3104 3103 3102 3100 3099 3098 3097 3095 3094 3094
3064 3067 3071 3075 3078 3082 3085 3087 3089 3091 3092 3094 3095 3096 3097 3097 3098 3099 3099 3099 3099 3100 3100 3100 3100 3100 3100 3100 3100 3099 3098 3098 3097 3096 3093 3095 3092 3092 3088 3087 3086 3085 3084
3061 3065 3068 3072 3075 3079 3081 3083 3085 3086 3088 3089 3090 3091 3091 3092 3092 3093 3093 3093 3094 3094 3094 3093 3093 3092 3092 3092 3091 3091 3090 3088 3088 3087 3083 3082 3083 3081 3080 3077 3075 3074 3073
3059 3063 3066 3069 3072 3074 3076 3078 3080 3081 3082 3083 3084 3084 3085 3086 3086 3086 3086 3087 3087 3087 3087 3087 3087 3086 3085 3085 3083 3082 3081 3080 3079 3077 3076 3070 3071 3070 3069 3068 3066 3063 3062
3057 3061 3063 3065 3067 3069 3071 3072 3074 3074 3075 3076 3077 3078 3078 3079 3079 3080 3080 3080 3081 3080 3080 3080 3080 3079 3078 3076 3075 3073 3072 3070 3069 3068 3068 3065 3062 3060 3060 3059 3058 3055 3052